Time,TemperatureF,DewpointF,PressureIn,WindDirection,WindDirectionDegrees,WindSpeedMPH,WindSpeedGustMPH,Humidity,HourlyPrecipIn,Conditions,Clouds,dailyrainin,SoftwareType,DateUTC
2013-07-27 00:04:00,68.0,28.9,17.73,North,0,0.0,0.0,23,0.00,,---,0.00,VWS V13.01,2013-07-27 06:04:00,
2013-07-27 00:09:00,68.0,28.9,17.73,North,0,0.0,0.0,23,0.00,,---,0.00,VWS V13.01,2013-07-27 06:09:00,
2013-07-27 00:14:00,68.2,29.0,17.73,North,0,0.0,0.0,23,0.00,,---,0.00,VWS V13.01,2013-07-27 06:14:00,
2013-07-27 00:19:00,68.2,29.0,17.73,North,0,0.0,0.0,23,0.00,,---,0.00,VWS V13.01,2013-07-27 06:19:00,
2013-07-27 00:24:00,68.0,28.9,17.73,North,0,0.0,0.0,23,0.00,,---,0.00,VWS V13.01,2013-07-27 06:24:00,
2013-07-27 00:29:00,67.8,29.7,17.73,North,0,0.0,0.0,24,0.00,,---,0.00,VWS V13.01,2013-07-27 06:29:00,
2013-07-27 00:34:00,67.8,29.7,17.73,North,0,0.0,0.0,24,0.00,,---,0.00,VWS V13.01,2013-07-27 06:34:00,
2013-07-27 00:39:00,67.8,29.7,17.73,North,0,0.0,0.0,24,0.00,,---,0.00,VWS V13.01,2013-07-27 06:39:00,
2013-07-27 00:44:00,67.8,29.7,17.73,North,0,0.0,0.0,24,0.00,,---,0.00,VWS V13.01,2013-07-27 06:44:00,
2013-07-27 00:49:00,67.6,29.6,17.73,North,0,0.0,0.0,24,0.00,,---,0.00,VWS V13.01,2013-07-27 06:49:00,
2013-07-27 00:54:00,67.6,29.6,17.73,North,0,0.0,0.0,24,0.00,,---,0.00,VWS V13.01,2013-07-27 06:54:00,
2013-07-27 00:59:00,67.5,29.4,17.73,North,0,0.0,0.0,24,0.00,,---,0.00,VWS V13.01,2013-07-27 06:59:00,
2013-07-27 01:04:00,67.5,29.4,17.73,North,0,0.0,0.0,24,0.00,,---,0.00,VWS V13.01,2013-07-27 07:04:00,
2013-07-27 01:09:00,67.5,29.4,17.73,North,0,0.0,0.0,24,0.00,,---,0.00,VWS V13.01,2013-07-27 07:09:00,
2013-07-27 01:14:00,67.3,30.3,17.73,North,0,0.0,0.0,25,0.00,,---,0.00,VWS V13.01,2013-07-27 07:14:00,
2013-07-27 01:19:00,67.1,30.1,17.73,North,0,0.0,0.0,25,0.00,,---,0.00,VWS V13.01,2013-07-27 07:19:00,
2013-07-27 01:24:00,66.9,30.0,17.73,North,0,0.0,0.0,25,0.00,,---,0.00,VWS V13.01,2013-07-27 07:24:00,
2013-07-27 01:29:00,66.7,29.8,17.73,North,0,0.0,0.0,25,0.00,,---,0.00,VWS V13.01,2013-07-27 07:29:00,
2013-07-27 01:34:00,66.7,29.8,17.73,North,0,0.0,0.0,25,0.00,,---,0.00,VWS V13.01,2013-07-27 07:34:00,
2013-07-27 01:39:00,66.6,28.7,17.73,North,0,0.0,0.0,24,0.00,,---,0.00,VWS V13.01,2013-07-27 07:39:00,
2013-07-27 01:44:00,66.7,28.8,17.73,North,0,0.0,0.0,24,0.00,,---,0.00,VWS V13.01,2013-07-27 07:44:00,
2013-07-27 01:49:00,67.1,28.1,17.73,North,0,0.0,0.0,23,0.00,,---,0.00,VWS V13.01,2013-07-27 07:49:00,
2013-07-27 01:54:00,67.5,28.4,17.73,North,0,0.0,0.0,23,0.00,,---,0.00,VWS V13.01,2013-07-27 07:54:00,
2013-07-27 01:59:00,67.5,28.4,17.73,North,0,0.0,0.0,23,0.00,,---,0.00,VWS V13.01,2013-07-27 07:59:00,
2013-07-27 02:04:00,67.5,28.4,17.73,North,0,0.0,0.0,23,0.00,,---,0.00,VWS V13.01,2013-07-27 08:04:00,
2013-07-27 02:09:00,67.5,28.4,17.73,North,0,0.0,0.0,23,0.00,,---,0.00,VWS V13.01,2013-07-27 08:09:00,
2013-07-27 02:14:00,67.6,28.5,17.73,North,0,0.0,0.0,23,0.00,,---,0.00,VWS V13.01,2013-07-27 08:14:00,
2013-07-27 02:19:00,67.5,28.4,17.73,North,0,0.0,0.0,23,0.00,,---,0.00,VWS V13.01,2013-07-27 08:19:00,
2013-07-27 02:24:00,67.5,28.4,17.73,North,0,0.0,0.0,23,0.00,,---,0.00,VWS V13.01,2013-07-27 08:24:00,
2013-07-27 02:29:00,67.5,28.4,17.73,North,0,0.0,0.0,23,0.00,,---,0.00,VWS V13.01,2013-07-27 08:29:00,
2013-07-27 02:34:00,67.5,28.4,17.73,North,0,0.0,0.0,23,0.00,,---,0.00,VWS V13.01,2013-07-27 08:34:00,
2013-07-27 02:39:00,67.3,28.2,17.73,North,0,0.0,0.0,23,0.00,,---,0.00,VWS V13.01,2013-07-27 08:39:00,
2013-07-27 02:44:00,67.3,28.2,17.73,North,0,0.0,0.0,23,0.00,,---,0.00,VWS V13.01,2013-07-27 08:44:00,
2013-07-27 02:49:00,67.3,28.2,17.73,North,0,0.0,0.0,23,0.00,,---,0.00,VWS V13.01,2013-07-27 08:49:00,
2013-07-27 02:54:00,67.3,28.2,17.73,North,0,0.0,0.0,23,0.00,,---,0.00,VWS V13.01,2013-07-27 08:54:00,
2013-07-27 02:59:00,67.5,28.4,17.73,North,0,0.0,0.0,23,0.00,,---,0.00,VWS V13.01,2013-07-27 08:59:00,
2013-07-27 03:04:00,67.5,28.4,17.73,North,0,0.0,0.0,23,0.00,,---,0.00,VWS V13.01,2013-07-27 09:04:00,
2013-07-27 03:09:00,67.6,28.5,17.73,North,0,0.0,0.0,23,0.00,,---,0.00,VWS V13.01,2013-07-27 09:09:00,
2013-07-27 03:14:00,67.6,28.5,17.73,North,0,0.0,0.0,23,0.00,,---,0.00,VWS V13.01,2013-07-27 09:14:00,
2013-07-27 03:19:00,67.5,28.4,17.73,North,0,0.0,0.0,23,0.00,,---,0.00,VWS V13.01,2013-07-27 09:19:00,
2013-07-27 03:24:00,67.5,28.4,17.73,North,0,0.0,0.0,23,0.00,,---,0.00,VWS V13.01,2013-07-27 09:24:00,
2013-07-27 03:29:00,67.5,28.4,17.73,North,0,0.0,0.0,23,0.00,,---,0.00,VWS V13.01,2013-07-27 09:29:00,
2013-07-27 03:34:00,67.5,28.4,17.73,North,0,0.0,0.0,23,0.00,,---,0.00,VWS V13.01,2013-07-27 09:34:00,
2013-07-27 03:39:00,67.3,28.2,17.73,North,0,0.0,0.0,23,0.00,,---,0.00,VWS V13.01,2013-07-27 09:39:00,
2013-07-27 03:44:00,67.3,28.2,17.73,North,0,0.0,0.0,23,0.00,,---,0.00,VWS V13.01,2013-07-27 09:44:00,
2013-07-27 03:49:00,67.3,29.3,17.73,North,0,0.0,0.0,24,0.00,,---,0.00,VWS V13.01,2013-07-27 09:49:00,
2013-07-27 03:54:00,67.1,29.1,17.73,North,0,0.0,0.0,24,0.00,,---,0.00,VWS V13.01,2013-07-27 09:54:00,
2013-07-27 03:59:00,67.1,29.1,17.73,North,0,0.0,0.0,24,0.00,,---,0.00,VWS V13.01,2013-07-27 09:59:00,
2013-07-27 04:04:00,67.1,28.1,17.73,North,0,0.0,0.0,23,0.00,,---,0.00,VWS V13.01,2013-07-27 10:04:00,
2013-07-27 04:09:00,67.3,28.2,17.73,North,0,0.0,0.0,23,0.00,,---,0.00,VWS V13.01,2013-07-27 10:09:00,
2013-07-27 04:14:00,67.3,28.2,17.73,North,0,0.0,0.0,23,0.00,,---,0.00,VWS V13.01,2013-07-27 10:14:00,
2013-07-27 04:19:00,67.5,28.4,17.73,North,0,0.0,0.0,23,0.00,,---,0.00,VWS V13.01,2013-07-27 10:19:00,
2013-07-27 04:24:00,67.6,28.5,17.73,North,0,0.0,0.0,23,0.00,,---,0.00,VWS V13.01,2013-07-27 10:24:00,
2013-07-27 04:29:00,67.5,28.4,17.73,North,0,0.0,0.0,23,0.00,,---,0.00,VWS V13.01,2013-07-27 10:29:00,
2013-07-27 04:34:00,67.3,28.2,17.73,North,0,0.0,0.0,23,0.00,,---,0.00,VWS V13.01,2013-07-27 10:34:00,
2013-07-27 04:39:00,67.3,28.2,17.73,North,0,0.0,0.0,23,0.00,,---,0.00,VWS V13.01,2013-07-27 10:39:00,
2013-07-27 04:44:00,67.5,28.4,17.73,North,0,0.0,0.0,23,0.00,,---,0.00,VWS V13.01,2013-07-27 10:44:00,
2013-07-27 04:49:00,67.6,28.5,17.73,North,0,0.0,0.0,23,0.00,,---,0.00,VWS V13.01,2013-07-27 10:49:00,
2013-07-27 04:54:00,67.6,28.5,17.73,North,0,0.0,0.0,23,0.00,,---,0.00,VWS V13.01,2013-07-27 10:54:00,
2013-07-27 04:59:00,67.6,28.5,17.73,North,0,0.0,0.0,23,0.00,,---,0.00,VWS V13.01,2013-07-27 10:59:00,
2013-07-27 05:04:00,67.8,28.7,17.73,North,0,0.0,0.0,23,0.00,,---,0.00,VWS V13.01,2013-07-27 11:04:00,
2013-07-27 05:09:00,67.6,28.5,17.73,North,0,0.0,0.0,23,0.00,,---,0.00,VWS V13.01,2013-07-27 11:09:00,
2013-07-27 05:14:00,67.5,28.4,17.73,North,0,0.0,0.0,23,0.00,,---,0.00,VWS V13.01,2013-07-27 11:14:00,
2013-07-27 05:19:00,67.6,28.5,17.73,North,0,0.0,0.0,23,0.00,,---,0.00,VWS V13.01,2013-07-27 11:19:00,
2013-07-27 05:24:00,67.8,28.7,17.73,North,0,0.0,0.0,23,0.00,,---,0.00,VWS V13.01,2013-07-27 11:24:00,
2013-07-27 05:29:00,67.8,28.7,17.73,North,0,0.0,0.0,23,0.00,,---,0.00,VWS V13.01,2013-07-27 11:29:00,
2013-07-27 05:34:00,67.8,28.7,17.73,North,0,0.0,0.0,23,0.00,,---,0.00,VWS V13.01,2013-07-27 11:34:00,
2013-07-27 05:39:00,67.8,28.7,17.73,North,0,0.0,0.0,23,0.00,,---,0.00,VWS V13.01,2013-07-27 11:39:00,
2013-07-27 05:44:00,67.6,28.5,17.73,North,0,0.0,0.0,23,0.00,,---,0.00,VWS V13.01,2013-07-27 11:44:00,
2013-07-27 05:49:00,67.5,28.4,17.73,North,0,0.0,0.0,23,0.00,,---,0.00,VWS V13.01,2013-07-27 11:49:00,
2013-07-27 05:55:00,67.5,29.4,17.73,North,0,0.0,0.0,24,0.00,,---,0.00,VWS V13.01,2013-07-27 11:55:00,
2013-07-27 06:00:00,67.5,28.4,17.73,North,0,0.0,0.0,23,0.00,,---,0.00,VWS V13.01,2013-07-27 12:00:00,
2013-07-27 06:05:00,67.5,28.4,17.73,North,0,0.0,0.0,23,0.00,,---,0.00,VWS V13.01,2013-07-27 12:05:00,
2013-07-27 06:10:00,67.5,28.4,17.73,North,0,0.0,0.0,23,0.00,,---,0.00,VWS V13.01,2013-07-27 12:10:00,
2013-07-27 06:15:00,67.6,28.5,17.73,North,0,0.0,0.0,23,0.00,,---,0.00,VWS V13.01,2013-07-27 12:15:00,
2013-07-27 06:20:00,67.6,27.5,17.73,North,0,0.0,0.0,22,0.00,,---,0.00,VWS V13.01,2013-07-27 12:20:00,
2013-07-27 06:25:00,67.8,27.6,17.73,North,0,0.0,0.0,22,0.00,,---,0.00,VWS V13.01,2013-07-27 12:25:00,
2013-07-27 06:30:00,67.8,25.3,17.73,North,0,0.0,0.0,20,0.00,,---,0.00,VWS V13.01,2013-07-27 12:30:00,
2013-07-27 06:35:00,68.0,25.5,17.73,North,0,0.0,0.0,20,0.00,,---,0.00,VWS V13.01,2013-07-27 12:35:00,
2013-07-27 06:40:00,68.0,25.5,17.73,North,0,0.0,0.0,20,0.00,,---,0.00,VWS V13.01,2013-07-27 12:40:00,
2013-07-27 06:45:00,68.0,25.5,17.73,North,0,0.0,0.0,20,0.00,,---,0.00,VWS V13.01,2013-07-27 12:45:00,
2013-07-27 06:50:00,67.8,25.3,17.73,North,0,0.0,0.0,20,0.00,,---,0.00,VWS V13.01,2013-07-27 12:50:00,
2013-07-27 06:55:00,67.5,27.3,17.73,North,0,0.0,0.0,22,0.00,,---,0.00,VWS V13.01,2013-07-27 12:55:00,
2013-07-27 07:00:00,67.1,27.0,17.73,North,0,0.0,0.0,22,0.00,,---,0.00,VWS V13.01,2013-07-27 13:00:00,
2013-07-27 07:05:00,66.9,27.9,17.73,North,0,0.0,0.0,23,0.00,,---,0.00,VWS V13.01,2013-07-27 13:05:00,
2013-07-27 07:10:00,67.1,28.1,17.73,North,0,0.0,0.0,23,0.00,,---,0.00,VWS V13.01,2013-07-27 13:10:00,
2013-07-27 07:15:00,67.3,28.2,17.73,North,0,0.0,0.0,23,0.00,,---,0.00,VWS V13.01,2013-07-27 13:15:00,
2013-07-27 07:20:00,67.6,28.5,17.73,North,0,0.0,0.0,23,0.00,,---,0.00,VWS V13.01,2013-07-27 13:20:00,
2013-07-27 07:25:00,68.0,27.8,17.73,North,0,0.0,0.0,22,0.00,,---,0.00,VWS V13.01,2013-07-27 13:25:00,
2013-07-27 07:30:00,68.2,27.9,17.73,North,0,0.0,0.0,22,0.00,,---,0.00,VWS V13.01,2013-07-27 13:30:00,
2013-07-27 07:35:00,68.5,28.2,17.73,North,0,0.0,0.0,22,0.00,,---,0.00,VWS V13.01,2013-07-27 13:35:00,
2013-07-27 07:40:00,68.9,28.5,17.73,North,0,0.0,0.0,22,0.00,,---,0.00,VWS V13.01,2013-07-27 13:40:00,
2013-07-27 07:45:00,69.4,29.0,17.73,North,0,0.0,0.0,22,0.00,,---,0.00,VWS V13.01,2013-07-27 13:45:00,
2013-07-27 07:50:00,70.5,29.9,17.73,North,0,0.0,0.0,22,0.00,,---,0.00,VWS V13.01,2013-07-27 13:50:00,
2013-07-27 07:55:00,71.6,29.6,17.73,North,0,0.0,0.0,21,0.00,,---,0.00,VWS V13.01,2013-07-27 13:55:00,
2013-07-27 08:00:00,72.1,30.1,17.73,North,0,0.0,0.0,21,0.00,,---,0.00,VWS V13.01,2013-07-27 14:00:00,
2013-07-27 08:05:00,72.3,30.2,17.73,North,0,0.0,0.0,21,0.00,,---,0.00,VWS V13.01,2013-07-27 14:05:00,
2013-07-27 08:11:00,72.9,30.7,17.73,North,0,0.0,0.0,21,0.00,,---,0.00,VWS V13.01,2013-07-27 14:11:00,
2013-07-27 08:16:00,72.5,30.4,17.73,North,0,0.0,0.0,21,0.00,,---,0.00,VWS V13.01,2013-07-27 14:16:00,
2013-07-27 08:21:00,71.6,29.6,17.73,North,0,0.0,0.0,21,0.00,,---,0.00,VWS V13.01,2013-07-27 14:21:00,
2013-07-27 08:26:00,71.4,30.6,17.73,North,0,0.0,0.0,22,0.00,,---,0.00,VWS V13.01,2013-07-27 14:26:00,
2013-07-27 08:31:00,71.4,30.6,17.73,North,0,0.0,0.0,22,0.00,,---,0.00,VWS V13.01,2013-07-27 14:31:00,
2013-07-27 08:36:00,72.0,29.9,17.73,North,0,0.0,0.0,21,0.00,,---,0.00,VWS V13.01,2013-07-27 14:36:00,
2013-07-27 08:41:00,72.0,31.1,17.73,North,0,0.0,0.0,22,0.00,,---,0.00,VWS V13.01,2013-07-27 14:41:00,
2013-07-27 08:46:00,72.0,29.9,17.73,North,0,0.0,0.0,21,0.00,,---,0.00,VWS V13.01,2013-07-27 14:46:00,
2013-07-27 08:51:00,72.1,31.2,17.73,North,0,0.0,0.0,22,0.00,,---,0.00,VWS V13.01,2013-07-27 14:51:00,
2013-07-27 08:56:00,72.3,30.2,17.73,North,0,0.0,0.0,21,0.00,,---,0.00,VWS V13.01,2013-07-27 14:56:00,
2013-07-27 09:01:00,72.5,30.4,17.73,North,0,0.0,0.0,21,0.00,,---,0.00,VWS V13.01,2013-07-27 15:01:00,
2013-07-27 09:07:00,72.3,30.2,17.73,North,0,0.0,0.0,21,0.00,,---,0.00,VWS V13.01,2013-07-27 15:07:00,
2013-07-27 09:12:00,72.1,30.1,17.73,North,0,0.0,0.0,21,0.00,,---,0.00,VWS V13.01,2013-07-27 15:12:00,
2013-07-27 09:17:00,72.0,29.9,17.73,North,0,0.0,0.0,21,0.00,,---,0.00,VWS V13.01,2013-07-27 15:17:00,
2013-07-27 09:22:00,71.6,29.6,17.73,North,0,0.0,0.0,21,0.00,,---,0.00,VWS V13.01,2013-07-27 15:22:00,
2013-07-27 09:27:00,71.4,30.6,17.73,North,0,0.0,0.0,22,0.00,,---,0.00,VWS V13.01,2013-07-27 15:27:00,
2013-07-27 09:32:00,71.4,30.6,17.73,North,0,0.0,0.0,22,0.00,,---,0.00,VWS V13.01,2013-07-27 15:32:00,
2013-07-27 09:37:00,71.1,30.3,17.73,North,0,0.0,0.0,22,0.00,,---,0.00,VWS V13.01,2013-07-27 15:37:00,
2013-07-27 09:42:00,71.2,30.5,17.73,North,0,0.0,0.0,22,0.00,,---,0.00,VWS V13.01,2013-07-27 15:42:00,
2013-07-27 09:47:00,71.4,30.6,17.73,North,0,0.0,0.0,22,0.00,,---,0.00,VWS V13.01,2013-07-27 15:47:00,
2013-07-27 09:53:00,72.0,29.9,17.73,North,0,0.0,0.0,21,0.00,,---,0.00,VWS V13.01,2013-07-27 15:53:00,
2013-07-27 09:58:00,72.3,30.2,17.73,North,0,0.0,0.0,21,0.00,,---,0.00,VWS V13.01,2013-07-27 15:58:00,
2013-07-27 10:03:00,72.9,30.7,17.73,North,0,0.0,0.0,21,0.00,,---,0.00,VWS V13.01,2013-07-27 16:03:00,
2013-07-27 10:08:00,73.2,31.0,17.73,North,0,0.0,0.0,21,0.00,,---,0.00,VWS V13.01,2013-07-27 16:08:00,
2013-07-27 10:09:00,73.2,31.0,17.73,North,0,0.0,0.0,21,0.00,,---,0.00,VWS V13.01,2013-07-27 16:09:00,
2013-07-27 10:10:00,73.2,31.0,17.73,North,0,0.0,0.0,21,0.00,,---,0.00,VWS V13.01,2013-07-27 16:10:00,
2013-07-27 10:11:00,73.2,31.0,17.73,North,0,0.0,0.0,21,0.00,,---,0.00,VWS V13.01,2013-07-27 16:11:00,
2013-07-27 10:12:00,73.4,31.1,17.73,North,0,0.0,0.0,21,0.00,,---,0.00,VWS V13.01,2013-07-27 16:12:00,
2013-07-27 10:13:00,73.9,31.6,17.73,North,0,0.0,0.0,21,0.00,,---,0.00,VWS V13.01,2013-07-27 16:13:00,
2013-07-27 10:14:00,73.6,31.3,17.73,North,0,0.0,0.0,21,0.00,,---,0.00,VWS V13.01,2013-07-27 16:14:00,
2013-07-27 10:15:00,73.8,31.4,17.73,North,0,0.0,0.0,21,0.00,,---,0.00,VWS V13.01,2013-07-27 16:15:00,
2013-07-27 10:16:00,73.9,31.6,17.73,North,0,0.0,0.0,21,0.00,,---,0.00,VWS V13.01,2013-07-27 16:16:00,
2013-07-27 10:17:00,74.1,31.7,17.73,North,0,0.0,0.0,21,0.00,,---,0.00,VWS V13.01,2013-07-27 16:17:00,
2013-07-27 10:18:00,75.0,32.5,17.73,North,0,0.0,0.0,21,0.00,,---,0.00,VWS V13.01,2013-07-27 16:18:00,
2013-07-27 10:19:00,74.7,32.2,17.73,North,0,0.0,0.0,21,0.00,,---,0.00,VWS V13.01,2013-07-27 16:19:00,
2013-07-27 10:20:00,74.7,32.2,17.73,North,0,0.0,0.0,21,0.00,,---,0.00,VWS V13.01,2013-07-27 16:20:00,
2013-07-27 10:21:00,75.0,32.5,17.73,North,0,0.0,0.0,21,0.00,,---,0.00,VWS V13.01,2013-07-27 16:21:00,
2013-07-27 10:22:00,75.0,32.5,17.73,North,0,0.0,0.0,21,0.00,,---,0.00,VWS V13.01,2013-07-27 16:22:00,
2013-07-27 10:23:00,75.4,29.0,17.73,North,0,0.0,0.0,18,0.00,,---,0.00,VWS V13.01,2013-07-27 16:23:00,
2013-07-27 10:24:00,75.2,31.4,17.73,North,0,0.0,0.0,20,0.00,,---,0.00,VWS V13.01,2013-07-27 16:24:00,
2013-07-27 10:25:00,75.2,28.8,17.73,North,0,0.0,0.0,18,0.00,,---,0.00,VWS V13.01,2013-07-27 16:25:00,
2013-07-27 10:26:00,75.2,28.8,17.73,North,0,0.0,0.0,18,0.00,,---,0.00,VWS V13.01,2013-07-27 16:26:00,
2013-07-27 10:27:00,75.4,29.0,17.73,North,0,0.0,0.0,18,0.00,,---,0.00,VWS V13.01,2013-07-27 16:27:00,
2013-07-27 10:28:00,75.4,29.0,17.73,North,0,0.0,0.0,18,0.00,,---,0.00,VWS V13.01,2013-07-27 16:28:00,
2013-07-27 10:29:00,75.7,29.3,17.73,North,0,0.0,0.0,18,0.00,,---,0.00,VWS V13.01,2013-07-27 16:29:00,
2013-07-27 10:30:00,75.6,29.1,17.73,North,0,0.0,0.0,18,0.00,,---,0.00,VWS V13.01,2013-07-27 16:30:00,
2013-07-27 10:31:00,75.7,29.3,17.73,North,0,0.0,0.0,18,0.00,,---,0.00,VWS V13.01,2013-07-27 16:31:00,
2013-07-27 10:32:00,75.7,29.3,17.73,North,0,0.0,0.0,18,0.00,,---,0.00,VWS V13.01,2013-07-27 16:32:00,
2013-07-27 10:33:00,75.7,29.3,17.73,North,0,0.0,0.0,18,0.00,,---,0.00,VWS V13.01,2013-07-27 16:33:00,
2013-07-27 10:34:00,75.7,29.3,17.73,North,0,0.0,0.0,18,0.00,,---,0.00,VWS V13.01,2013-07-27 16:34:00,
2013-07-27 10:35:00,75.9,29.4,17.73,North,0,0.0,0.0,18,0.00,,---,0.00,VWS V13.01,2013-07-27 16:35:00,
2013-07-27 10:36:00,75.7,29.3,17.73,North,0,0.0,0.0,18,0.00,,---,0.00,VWS V13.01,2013-07-27 16:36:00,
2013-07-27 10:37:00,75.7,29.3,17.73,North,0,0.0,0.0,18,0.00,,---,0.00,VWS V13.01,2013-07-27 16:37:00,
2013-07-27 10:38:00,75.7,29.3,17.73,North,0,0.0,0.0,18,0.00,,---,0.00,VWS V13.01,2013-07-27 16:38:00,
2013-07-27 10:39:00,75.4,29.0,17.73,North,0,0.0,0.0,18,0.00,,---,0.00,VWS V13.01,2013-07-27 16:39:00,
2013-07-27 10:40:00,75.7,29.3,17.73,North,0,0.0,0.0,18,0.00,,---,0.00,VWS V13.01,2013-07-27 16:40:00,
2013-07-27 10:41:00,75.6,29.1,17.73,North,0,0.0,0.0,18,0.00,,---,0.00,VWS V13.01,2013-07-27 16:41:00,
2013-07-27 10:42:00,75.4,29.0,17.73,North,0,0.0,0.0,18,0.00,,---,0.00,VWS V13.01,2013-07-27 16:42:00,
2013-07-27 10:43:00,75.4,29.0,17.73,North,0,0.0,0.0,18,0.00,,---,0.00,VWS V13.01,2013-07-27 16:43:00,
2013-07-27 10:44:00,74.3,28.1,17.73,North,0,0.0,0.0,18,0.00,,---,0.00,VWS V13.01,2013-07-27 16:44:00,
2013-07-27 10:45:00,74.7,28.4,17.73,North,0,0.0,0.0,18,0.00,,---,0.00,VWS V13.01,2013-07-27 16:45:00,
2013-07-27 10:46:00,74.5,28.2,17.73,North,0,0.0,0.0,18,0.00,,---,0.00,VWS V13.01,2013-07-27 16:46:00,
2013-07-27 10:47:00,74.3,28.1,17.73,North,0,0.0,0.0,18,0.00,,---,0.00,VWS V13.01,2013-07-27 16:47:00,
2013-07-27 10:48:00,74.1,27.9,17.73,North,0,0.0,0.0,18,0.00,,---,0.00,VWS V13.01,2013-07-27 16:48:00,
2013-07-27 10:49:00,73.8,31.4,17.73,North,0,0.0,0.0,21,0.00,,---,0.00,VWS V13.01,2013-07-27 16:49:00,
2013-07-27 10:50:00,73.9,31.6,17.73,North,0,0.0,0.0,21,0.00,,---,0.00,VWS V13.01,2013-07-27 16:50:00,
2013-07-27 10:51:00,73.8,31.4,17.73,North,0,0.0,0.0,21,0.00,,---,0.00,VWS V13.01,2013-07-27 16:51:00,
2013-07-27 10:52:00,73.8,31.4,17.73,North,0,0.0,0.0,21,0.00,,---,0.00,VWS V13.01,2013-07-27 16:52:00,
2013-07-27 10:53:00,73.8,31.4,17.73,North,0,0.0,0.0,21,0.00,,---,0.00,VWS V13.01,2013-07-27 16:53:00,
2013-07-27 10:54:00,73.9,31.6,17.73,North,0,0.0,0.0,21,0.00,,---,0.00,VWS V13.01,2013-07-27 16:54:00,
2013-07-27 10:55:00,73.9,31.6,17.73,North,0,0.0,0.0,21,0.00,,---,0.00,VWS V13.01,2013-07-27 16:55:00,
2013-07-27 10:56:00,73.9,31.6,17.73,North,0,0.0,0.0,21,0.00,,---,0.00,VWS V13.01,2013-07-27 16:56:00,
2013-07-27 10:57:00,73.9,31.6,17.73,North,0,0.0,0.0,21,0.00,,---,0.00,VWS V13.01,2013-07-27 16:57:00,
2013-07-27 10:58:00,73.9,31.6,17.73,North,0,0.0,0.0,21,0.00,,---,0.00,VWS V13.01,2013-07-27 16:58:00,
2013-07-27 10:59:00,73.9,31.6,17.73,North,0,0.0,0.0,21,0.00,,---,0.00,VWS V13.01,2013-07-27 16:59:00,
2013-07-27 11:00:00,73.9,31.6,17.73,North,0,0.0,0.0,21,0.00,,---,0.00,VWS V13.01,2013-07-27 17:00:00,
2013-07-27 11:01:00,73.9,31.6,17.73,North,0,0.0,0.0,21,0.00,,---,0.00,VWS V13.01,2013-07-27 17:01:00,
2013-07-27 11:02:00,73.9,31.6,17.73,North,0,0.0,0.0,21,0.00,,---,0.00,VWS V13.01,2013-07-27 17:02:00,
2013-07-27 11:03:00,73.8,31.4,17.73,North,0,0.0,0.0,21,0.00,,---,0.00,VWS V13.01,2013-07-27 17:03:00,
2013-07-27 11:04:00,73.6,31.3,17.73,North,0,0.0,0.0,21,0.00,,---,0.00,VWS V13.01,2013-07-27 17:04:00,
2013-07-27 11:05:00,73.6,31.3,17.73,North,0,0.0,0.0,21,0.00,,---,0.00,VWS V13.01,2013-07-27 17:05:00,
2013-07-27 11:06:00,73.6,31.3,17.73,North,0,0.0,0.0,21,0.00,,---,0.00,VWS V13.01,2013-07-27 17:06:00,
2013-07-27 11:07:00,73.6,31.3,17.73,North,0,0.0,0.0,21,0.00,,---,0.00,VWS V13.01,2013-07-27 17:07:00,
2013-07-27 11:08:00,73.6,31.3,17.73,North,0,0.0,0.0,21,0.00,,---,0.00,VWS V13.01,2013-07-27 17:08:00,
2013-07-27 11:09:00,73.4,31.1,17.73,North,0,0.0,0.0,21,0.00,,---,0.00,VWS V13.01,2013-07-27 17:09:00,
2013-07-27 11:10:00,73.6,31.3,17.73,North,0,0.0,0.0,21,0.00,,---,0.00,VWS V13.01,2013-07-27 17:10:00,
2013-07-27 11:11:00,73.4,31.1,17.73,North,0,0.0,0.0,21,0.00,,---,0.00,VWS V13.01,2013-07-27 17:11:00,
2013-07-27 11:12:00,73.4,31.1,17.73,North,0,0.0,0.0,21,0.00,,---,0.00,VWS V13.01,2013-07-27 17:12:00,
2013-07-27 11:13:00,73.2,32.1,17.73,North,0,0.0,0.0,22,0.00,,---,0.00,VWS V13.01,2013-07-27 17:13:00,
2013-07-27 11:14:00,72.5,31.5,17.73,North,0,0.0,0.0,22,0.00,,---,0.00,VWS V13.01,2013-07-27 17:14:00,
2013-07-27 11:15:00,72.9,31.8,17.73,North,0,0.0,0.0,22,0.00,,---,0.00,VWS V13.01,2013-07-27 17:15:00,
2013-07-27 11:16:00,72.9,31.8,17.73,North,0,0.0,0.0,22,0.00,,---,0.00,VWS V13.01,2013-07-27 17:16:00,
2013-07-27 11:17:00,72.5,31.5,17.73,North,0,0.0,0.0,22,0.00,,---,0.00,VWS V13.01,2013-07-27 17:17:00,
2013-07-27 11:18:00,72.5,31.5,17.73,North,0,0.0,0.0,22,0.00,,---,0.00,VWS V13.01,2013-07-27 17:18:00,
2013-07-27 11:19:00,71.6,30.8,17.73,North,0,0.0,0.0,22,0.00,,---,0.00,VWS V13.01,2013-07-27 17:19:00,
2013-07-27 11:20:00,72.0,31.1,17.73,North,0,0.0,0.0,22,0.00,,---,0.00,VWS V13.01,2013-07-27 17:20:00,
2013-07-27 11:21:00,71.8,30.9,17.73,North,0,0.0,0.0,22,0.00,,---,0.00,VWS V13.01,2013-07-27 17:21:00,
2013-07-27 11:22:00,71.6,30.8,17.73,North,0,0.0,0.0,22,0.00,,---,0.00,VWS V13.01,2013-07-27 17:22:00,
2013-07-27 11:23:00,71.4,30.6,17.73,North,0,0.0,0.0,22,0.00,,---,0.00,VWS V13.01,2013-07-27 17:23:00,
2013-07-27 11:24:00,71.1,30.3,17.73,North,0,0.0,0.0,22,0.00,,---,0.00,VWS V13.01,2013-07-27 17:24:00,
2013-07-27 11:25:00,71.2,30.5,17.73,North,0,0.0,0.0,22,0.00,,---,0.00,VWS V13.01,2013-07-27 17:25:00,
2013-07-27 11:26:00,71.1,30.3,17.73,North,0,0.0,0.0,22,0.00,,---,0.00,VWS V13.01,2013-07-27 17:26:00,
2013-07-27 11:27:00,71.1,30.3,17.73,North,0,0.0,0.0,22,0.00,,---,0.00,VWS V13.01,2013-07-27 17:27:00,
2013-07-27 11:28:00,70.9,30.2,17.73,North,0,0.0,0.0,22,0.00,,---,0.00,VWS V13.01,2013-07-27 17:28:00,
2013-07-27 11:29:00,70.7,30.0,17.73,North,0,0.0,0.0,22,0.00,,---,0.00,VWS V13.01,2013-07-27 17:29:00,
2013-07-27 11:30:00,70.7,30.0,17.73,North,0,0.0,0.0,22,0.00,,---,0.00,VWS V13.01,2013-07-27 17:30:00,
2013-07-27 11:31:00,70.7,30.0,17.73,North,0,0.0,0.0,22,0.00,,---,0.00,VWS V13.01,2013-07-27 17:31:00,
2013-07-27 11:32:00,70.7,30.0,17.73,North,0,0.0,0.0,22,0.00,,---,0.00,VWS V13.01,2013-07-27 17:32:00,
2013-07-27 11:33:00,70.5,29.9,17.73,North,0,0.0,0.0,22,0.00,,---,0.00,VWS V13.01,2013-07-27 17:33:00,
2013-07-27 11:34:00,70.2,29.6,17.73,North,0,0.0,0.0,22,0.00,,---,0.00,VWS V13.01,2013-07-27 17:34:00,
2013-07-27 11:35:00,70.5,29.9,17.73,North,0,0.0,0.0,22,0.00,,---,0.00,VWS V13.01,2013-07-27 17:35:00,
2013-07-27 11:36:00,70.3,29.7,17.73,North,0,0.0,0.0,22,0.00,,---,0.00,VWS V13.01,2013-07-27 17:36:00,
2013-07-27 11:37:00,70.2,29.6,17.73,North,0,0.0,0.0,22,0.00,,---,0.00,VWS V13.01,2013-07-27 17:37:00,
2013-07-27 11:38:00,70.2,29.6,17.73,North,0,0.0,0.0,22,0.00,,---,0.00,VWS V13.01,2013-07-27 17:38:00,
2013-07-27 11:39:00,69.8,29.3,17.73,North,0,0.0,0.0,22,0.00,,---,0.00,VWS V13.01,2013-07-27 17:39:00,
2013-07-27 11:40:00,70.0,29.4,17.73,North,0,0.0,0.0,22,0.00,,---,0.00,VWS V13.01,2013-07-27 17:40:00,
2013-07-27 11:41:00,69.8,29.3,17.73,North,0,0.0,0.0,22,0.00,,---,0.00,VWS V13.01,2013-07-27 17:41:00,
2013-07-27 11:42:00,69.8,29.3,17.73,North,0,0.0,0.0,22,0.00,,---,0.00,VWS V13.01,2013-07-27 17:42:00,
2013-07-27 11:43:00,69.6,30.2,17.73,North,0,0.0,0.0,23,0.00,,---,0.00,VWS V13.01,2013-07-27 17:43:00,
2013-07-27 11:44:00,69.6,30.2,17.73,North,0,0.0,0.0,23,0.00,,---,0.00,VWS V13.01,2013-07-27 17:44:00,
2013-07-27 11:45:00,69.6,30.2,17.73,North,0,0.0,0.0,23,0.00,,---,0.00,VWS V13.01,2013-07-27 17:45:00,
2013-07-27 11:46:00,69.6,30.2,17.73,North,0,0.0,0.0,23,0.00,,---,0.00,VWS V13.01,2013-07-27 17:46:00,
2013-07-27 11:47:00,69.6,30.2,17.73,North,0,0.0,0.0,23,0.00,,---,0.00,VWS V13.01,2013-07-27 17:47:00,
2013-07-27 11:48:00,69.6,30.2,17.73,North,0,0.0,0.0,23,0.00,,---,0.00,VWS V13.01,2013-07-27 17:48:00,
2013-07-27 11:49:00,69.8,30.4,17.73,North,0,0.0,0.0,23,0.00,,---,0.00,VWS V13.01,2013-07-27 17:49:00,
2013-07-27 11:50:00,69.8,30.4,17.73,North,0,0.0,0.0,23,0.00,,---,0.00,VWS V13.01,2013-07-27 17:50:00,
2013-07-27 11:51:00,69.8,30.4,17.73,North,0,0.0,0.0,23,0.00,,---,0.00,VWS V13.01,2013-07-27 17:51:00,
2013-07-27 11:52:00,69.8,30.4,17.73,North,0,0.0,0.0,23,0.00,,---,0.00,VWS V13.01,2013-07-27 17:52:00,
2013-07-27 11:53:00,70.0,30.5,17.73,North,0,0.0,0.0,23,0.00,,---,0.00,VWS V13.01,2013-07-27 17:53:00,
2013-07-27 11:54:00,70.0,30.5,17.73,North,0,0.0,0.0,23,0.00,,---,0.00,VWS V13.01,2013-07-27 17:54:00,
2013-07-27 11:55:00,70.0,30.5,17.73,North,0,0.0,0.0,23,0.00,,---,0.00,VWS V13.01,2013-07-27 17:55:00,
2013-07-27 11:56:00,70.0,30.5,17.73,North,0,0.0,0.0,23,0.00,,---,0.00,VWS V13.01,2013-07-27 17:56:00,
2013-07-27 11:57:00,70.0,30.5,17.73,North,0,0.0,0.0,23,0.00,,---,0.00,VWS V13.01,2013-07-27 17:57:00,
2013-07-27 11:58:00,70.0,30.5,17.73,North,0,0.0,0.0,23,0.00,,---,0.00,VWS V13.01,2013-07-27 17:58:00,
2013-07-27 11:59:00,70.2,30.7,17.73,North,0,0.0,0.0,23,0.00,,---,0.00,VWS V13.01,2013-07-27 17:59:00,
2013-07-27 12:00:00,70.2,30.7,17.73,North,0,0.0,0.0,23,0.00,,---,0.00,VWS V13.01,2013-07-27 18:00:00,
2013-07-27 12:01:00,70.2,30.7,17.73,North,0,0.0,0.0,23,0.00,,---,0.00,VWS V13.01,2013-07-27 18:01:00,
2013-07-27 12:02:00,70.2,30.7,17.73,North,0,0.0,0.0,23,0.00,,---,0.00,VWS V13.01,2013-07-27 18:02:00,
2013-07-27 12:03:00,70.3,30.8,17.73,North,0,0.0,0.0,23,0.00,,---,0.00,VWS V13.01,2013-07-27 18:03:00,
2013-07-27 12:04:00,70.3,30.8,17.73,North,0,0.0,0.0,23,0.00,,---,0.00,VWS V13.01,2013-07-27 18:04:00,
2013-07-27 12:05:00,70.3,30.8,17.73,North,0,0.0,0.0,23,0.00,,---,0.00,VWS V13.01,2013-07-27 18:05:00,
2013-07-27 12:06:00,70.3,30.8,17.73,North,0,0.0,0.0,23,0.00,,---,0.00,VWS V13.01,2013-07-27 18:06:00,
2013-07-27 12:07:00,70.3,30.8,17.73,North,0,0.0,0.0,23,0.00,,---,0.00,VWS V13.01,2013-07-27 18:07:00,
2013-07-27 12:08:00,70.3,30.8,17.73,North,0,0.0,0.0,23,0.00,,---,0.00,VWS V13.01,2013-07-27 18:08:00,
2013-07-27 12:09:00,70.3,30.8,17.73,North,0,0.0,0.0,23,0.00,,---,0.00,VWS V13.01,2013-07-27 18:09:00,
2013-07-27 12:10:00,70.3,29.7,17.73,North,0,0.0,0.0,22,0.00,,---,0.00,VWS V13.01,2013-07-27 18:10:00,
2013-07-27 12:11:00,70.3,29.7,17.73,North,0,0.0,0.0,22,0.00,,---,0.00,VWS V13.01,2013-07-27 18:11:00,
2013-07-27 12:12:00,70.3,30.8,17.73,North,0,0.0,0.0,23,0.00,,---,0.00,VWS V13.01,2013-07-27 18:12:00,
2013-07-27 12:13:00,70.3,30.8,17.73,North,0,0.0,0.0,23,0.00,,---,0.00,VWS V13.01,2013-07-27 18:13:00,
2013-07-27 12:14:00,70.5,29.9,17.73,North,0,0.0,0.0,22,0.00,,---,0.00,VWS V13.01,2013-07-27 18:14:00,
2013-07-27 12:15:00,70.3,30.8,17.73,North,0,0.0,0.0,23,0.00,,---,0.00,VWS V13.01,2013-07-27 18:15:00,
2013-07-27 12:16:00,70.5,31.0,17.73,North,0,0.0,0.0,23,0.00,,---,0.00,VWS V13.01,2013-07-27 18:16:00,
2013-07-27 12:17:00,70.5,29.9,17.73,North,0,0.0,0.0,22,0.00,,---,0.00,VWS V13.01,2013-07-27 18:17:00,
2013-07-27 12:18:00,70.5,29.9,17.73,North,0,0.0,0.0,22,0.00,,---,0.00,VWS V13.01,2013-07-27 18:18:00,
2013-07-27 12:19:00,71.1,30.3,17.73,North,0,0.0,0.0,22,0.00,,---,0.00,VWS V13.01,2013-07-27 18:19:00,
2013-07-27 12:20:00,70.7,31.1,17.73,North,0,0.0,0.0,23,0.00,,---,0.00,VWS V13.01,2013-07-27 18:20:00,
2013-07-27 12:21:00,70.9,30.2,17.73,North,0,0.0,0.0,22,0.00,,---,0.00,VWS V13.01,2013-07-27 18:21:00,
2013-07-27 12:22:00,71.1,30.3,17.73,North,0,0.0,0.0,22,0.00,,---,0.00,VWS V13.01,2013-07-27 18:22:00,
2013-07-27 12:23:00,71.1,30.3,17.73,North,0,0.0,0.0,22,0.00,,---,0.00,VWS V13.01,2013-07-27 18:23:00,
2013-07-27 12:24:00,71.2,30.5,17.73,North,0,0.0,0.0,22,0.00,,---,0.00,VWS V13.01,2013-07-27 18:24:00,
2013-07-27 12:25:00,71.2,30.5,17.73,North,0,0.0,0.0,22,0.00,,---,0.00,VWS V13.01,2013-07-27 18:25:00,
2013-07-27 12:26:00,71.2,30.5,17.73,North,0,0.0,0.0,22,0.00,,---,0.00,VWS V13.01,2013-07-27 18:26:00,
2013-07-27 12:27:00,71.2,30.5,17.73,North,0,0.0,0.0,22,0.00,,---,0.00,VWS V13.01,2013-07-27 18:27:00,
2013-07-27 12:28:00,71.2,30.5,17.73,North,0,0.0,0.0,22,0.00,,---,0.00,VWS V13.01,2013-07-27 18:28:00,
2013-07-27 12:29:00,71.6,30.8,17.73,North,0,0.0,0.0,22,0.00,,---,0.00,VWS V13.01,2013-07-27 18:29:00,
2013-07-27 12:30:00,71.4,30.6,17.73,North,0,0.0,0.0,22,0.00,,---,0.00,VWS V13.01,2013-07-27 18:30:00,
2013-07-27 12:31:00,71.4,30.6,17.73,North,0,0.0,0.0,22,0.00,,---,0.00,VWS V13.01,2013-07-27 18:31:00,
2013-07-27 12:32:00,71.6,30.8,17.73,North,0,0.0,0.0,22,0.00,,---,0.00,VWS V13.01,2013-07-27 18:32:00,
2013-07-27 12:33:00,71.6,30.8,17.73,North,0,0.0,0.0,22,0.00,,---,0.00,VWS V13.01,2013-07-27 18:33:00,
2013-07-27 12:34:00,71.6,29.6,17.73,North,0,0.0,0.0,21,0.00,,---,0.00,VWS V13.01,2013-07-27 18:34:00,
2013-07-27 12:35:00,71.6,30.8,17.73,North,0,0.0,0.0,22,0.00,,---,0.00,VWS V13.01,2013-07-27 18:35:00,
2013-07-27 12:36:00,71.6,30.8,17.73,North,0,0.0,0.0,22,0.00,,---,0.00,VWS V13.01,2013-07-27 18:36:00,
2013-07-27 12:37:00,71.6,29.6,17.73,North,0,0.0,0.0,21,0.00,,---,0.00,VWS V13.01,2013-07-27 18:37:00,
2013-07-27 12:38:00,71.4,30.6,17.73,North,0,0.0,0.0,22,0.00,,---,0.00,VWS V13.01,2013-07-27 18:38:00,
2013-07-27 12:39:00,71.4,30.6,17.73,North,0,0.0,0.0,22,0.00,,---,0.00,VWS V13.01,2013-07-27 18:39:00,
2013-07-27 12:40:00,71.4,30.6,17.73,North,0,0.0,0.0,22,0.00,,---,0.00,VWS V13.01,2013-07-27 18:40:00,
2013-07-27 12:41:00,71.4,30.6,17.73,North,0,0.0,0.0,22,0.00,,---,0.00,VWS V13.01,2013-07-27 18:41:00,
2013-07-27 12:42:00,71.4,30.6,17.73,North,0,0.0,0.0,22,0.00,,---,0.00,VWS V13.01,2013-07-27 18:42:00,
2013-07-27 12:43:00,71.4,30.6,17.73,North,0,0.0,0.0,22,0.00,,---,0.00,VWS V13.01,2013-07-27 18:43:00,
2013-07-27 12:44:00,71.2,30.5,17.73,North,0,0.0,0.0,22,0.00,,---,0.00,VWS V13.01,2013-07-27 18:44:00,
2013-07-27 12:45:00,71.2,30.5,17.73,North,0,0.0,0.0,22,0.00,,---,0.00,VWS V13.01,2013-07-27 18:45:00,
2013-07-27 12:46:00,71.2,30.5,17.73,North,0,0.0,0.0,22,0.00,,---,0.00,VWS V13.01,2013-07-27 18:46:00,
2013-07-27 12:47:00,71.2,30.5,17.73,North,0,0.0,0.0,22,0.00,,---,0.00,VWS V13.01,2013-07-27 18:47:00,
2013-07-27 12:48:00,71.2,30.5,17.73,North,0,0.0,0.0,22,0.00,,---,0.00,VWS V13.01,2013-07-27 18:48:00,
2013-07-27 12:49:00,71.1,30.3,17.73,North,0,0.0,0.0,22,0.00,,---,0.00,VWS V13.01,2013-07-27 18:49:00,
2013-07-27 12:50:00,71.1,30.3,17.73,North,0,0.0,0.0,22,0.00,,---,0.00,VWS V13.01,2013-07-27 18:50:00,
2013-07-27 12:51:00,71.1,30.3,17.73,North,0,0.0,0.0,22,0.00,,---,0.00,VWS V13.01,2013-07-27 18:51:00,
2013-07-27 12:52:00,71.1,30.3,17.73,North,0,0.0,0.0,22,0.00,,---,0.00,VWS V13.01,2013-07-27 18:52:00,
2013-07-27 12:53:00,71.1,30.3,17.73,North,0,0.0,0.0,22,0.00,,---,0.00,VWS V13.01,2013-07-27 18:53:00,
2013-07-27 12:54:00,71.6,29.6,17.73,North,0,0.0,0.0,21,0.00,,---,0.00,VWS V13.01,2013-07-27 18:54:00,
2013-07-27 12:55:00,71.2,30.5,17.73,North,0,0.0,0.0,22,0.00,,---,0.00,VWS V13.01,2013-07-27 18:55:00,
2013-07-27 12:56:00,71.4,30.6,17.73,North,0,0.0,0.0,22,0.00,,---,0.00,VWS V13.01,2013-07-27 18:56:00,
2013-07-27 12:57:00,71.6,29.6,17.73,North,0,0.0,0.0,21,0.00,,---,0.00,VWS V13.01,2013-07-27 18:57:00,
2013-07-27 12:58:00,71.8,29.8,17.73,North,0,0.0,0.0,21,0.00,,---,0.00,VWS V13.01,2013-07-27 18:58:00,
2013-07-27 12:59:00,72.1,30.1,17.73,North,0,0.0,0.0,21,0.00,,---,0.00,VWS V13.01,2013-07-27 18:59:00,
2013-07-27 13:00:00,72.0,29.9,17.73,North,0,0.0,0.0,21,0.00,,---,0.00,VWS V13.01,2013-07-27 19:00:00,
2013-07-27 13:01:00,72.1,30.1,17.73,North,0,0.0,0.0,21,0.00,,---,0.00,VWS V13.01,2013-07-27 19:01:00,
2013-07-27 13:02:00,72.1,30.1,17.73,North,0,0.0,0.0,21,0.00,,---,0.00,VWS V13.01,2013-07-27 19:02:00,
2013-07-27 13:03:00,72.3,30.2,17.73,North,0,0.0,0.0,21,0.00,,---,0.00,VWS V13.01,2013-07-27 19:03:00,
2013-07-27 13:04:00,72.5,30.4,17.73,North,0,0.0,0.0,21,0.00,,---,0.00,VWS V13.01,2013-07-27 19:04:00,
2013-07-27 13:05:00,72.5,30.4,17.73,North,0,0.0,0.0,21,0.00,,---,0.00,VWS V13.01,2013-07-27 19:05:00,
2013-07-27 13:06:00,72.5,30.4,17.73,North,0,0.0,0.0,21,0.00,,---,0.00,VWS V13.01,2013-07-27 19:06:00,
2013-07-27 13:07:00,72.5,30.4,17.73,North,0,0.0,0.0,21,0.00,,---,0.00,VWS V13.01,2013-07-27 19:07:00,
2013-07-27 13:08:00,72.7,30.5,17.73,North,0,0.0,0.0,21,0.00,,---,0.00,VWS V13.01,2013-07-27 19:08:00,
2013-07-27 13:09:00,72.7,30.5,17.73,North,0,0.0,0.0,21,0.00,,---,0.00,VWS V13.01,2013-07-27 19:09:00,
2013-07-27 13:10:00,72.7,30.5,17.73,North,0,0.0,0.0,21,0.00,,---,0.00,VWS V13.01,2013-07-27 19:10:00,
2013-07-27 13:11:00,72.7,30.5,17.73,North,0,0.0,0.0,21,0.00,,---,0.00,VWS V13.01,2013-07-27 19:11:00,
2013-07-27 13:12:00,72.7,30.5,17.73,North,0,0.0,0.0,21,0.00,,---,0.00,VWS V13.01,2013-07-27 19:12:00,
2013-07-27 13:13:00,72.7,30.5,17.73,North,0,0.0,0.0,21,0.00,,---,0.00,VWS V13.01,2013-07-27 19:13:00,
2013-07-27 13:14:00,72.9,30.7,17.73,North,0,0.0,0.0,21,0.00,,---,0.00,VWS V13.01,2013-07-27 19:14:00,
2013-07-27 13:15:00,72.7,30.5,17.73,North,0,0.0,0.0,21,0.00,,---,0.00,VWS V13.01,2013-07-27 19:15:00,
2013-07-27 13:16:00,72.7,30.5,17.73,North,0,0.0,0.0,21,0.00,,---,0.00,VWS V13.01,2013-07-27 19:16:00,
2013-07-27 13:17:00,72.9,30.7,17.73,North,0,0.0,0.0,21,0.00,,---,0.00,VWS V13.01,2013-07-27 19:17:00,
2013-07-27 13:18:00,72.9,30.7,17.73,North,0,0.0,0.0,21,0.00,,---,0.00,VWS V13.01,2013-07-27 19:18:00,
2013-07-27 13:19:00,72.9,30.7,17.73,North,0,0.0,0.0,21,0.00,,---,0.00,VWS V13.01,2013-07-27 19:19:00,
2013-07-27 13:20:00,72.9,30.7,17.73,North,0,0.0,0.0,21,0.00,,---,0.00,VWS V13.01,2013-07-27 19:20:00,
2013-07-27 13:21:00,72.9,30.7,17.73,North,0,0.0,0.0,21,0.00,,---,0.00,VWS V13.01,2013-07-27 19:21:00,
2013-07-27 13:22:00,72.9,30.7,17.73,North,0,0.0,0.0,21,0.00,,---,0.00,VWS V13.01,2013-07-27 19:22:00,
2013-07-27 13:23:00,72.9,30.7,17.73,North,0,0.0,0.0,21,0.00,,---,0.00,VWS V13.01,2013-07-27 19:23:00,
2013-07-27 13:24:00,72.7,30.5,17.73,North,0,0.0,0.0,21,0.00,,---,0.00,VWS V13.01,2013-07-27 19:24:00,
2013-07-27 13:25:00,72.7,30.5,17.73,North,0,0.0,0.0,21,0.00,,---,0.00,VWS V13.01,2013-07-27 19:25:00,
2013-07-27 13:26:00,72.7,30.5,17.73,North,0,0.0,0.0,21,0.00,,---,0.00,VWS V13.01,2013-07-27 19:26:00,
2013-07-27 13:27:00,72.7,30.5,17.73,North,0,0.0,0.0,21,0.00,,---,0.00,VWS V13.01,2013-07-27 19:27:00,
2013-07-27 13:28:00,72.7,30.5,17.73,North,0,0.0,0.0,21,0.00,,---,0.00,VWS V13.01,2013-07-27 19:28:00,
2013-07-27 13:29:00,72.7,30.5,17.73,North,0,0.0,0.0,21,0.00,,---,0.00,VWS V13.01,2013-07-27 19:29:00,
2013-07-27 13:30:00,72.7,28.1,17.73,North,0,0.0,0.0,19,0.00,,---,0.00,VWS V13.01,2013-07-27 19:30:00,
2013-07-27 13:31:00,72.7,30.5,17.73,North,0,0.0,0.0,21,0.00,,---,0.00,VWS V13.01,2013-07-27 19:31:00,
2013-07-27 13:32:00,72.7,30.5,17.73,North,0,0.0,0.0,21,0.00,,---,0.00,VWS V13.01,2013-07-27 19:32:00,
2013-07-27 13:33:00,72.7,30.5,17.73,North,0,0.0,0.0,21,0.00,,---,0.00,VWS V13.01,2013-07-27 19:33:00,
2013-07-27 13:34:00,72.5,27.9,17.73,North,0,0.0,0.0,19,0.00,,---,0.00,VWS V13.01,2013-07-27 19:34:00,
2013-07-27 13:35:00,72.7,28.1,17.73,North,0,0.0,0.0,19,0.00,,---,0.00,VWS V13.01,2013-07-27 19:35:00,
2013-07-27 13:36:00,72.7,28.1,17.73,North,0,0.0,0.0,19,0.00,,---,0.00,VWS V13.01,2013-07-27 19:36:00,
2013-07-27 13:37:00,72.5,27.9,17.73,North,0,0.0,0.0,19,0.00,,---,0.00,VWS V13.01,2013-07-27 19:37:00,
2013-07-27 13:38:00,72.5,27.9,17.73,North,0,0.0,0.0,19,0.00,,---,0.00,VWS V13.01,2013-07-27 19:38:00,
2013-07-27 13:39:00,72.0,27.5,17.73,North,0,0.0,0.0,19,0.00,,---,0.00,VWS V13.01,2013-07-27 19:39:00,
2013-07-27 13:40:00,72.1,27.6,17.73,North,0,0.0,0.0,19,0.00,,---,0.00,VWS V13.01,2013-07-27 19:40:00,
2013-07-27 13:41:00,72.0,29.9,17.73,North,0,0.0,0.0,21,0.00,,---,0.00,VWS V13.01,2013-07-27 19:41:00,
2013-07-27 13:42:00,72.0,27.5,17.73,North,0,0.0,0.0,19,0.00,,---,0.00,VWS V13.01,2013-07-27 19:42:00,
2013-07-27 13:43:00,71.8,27.3,17.73,North,0,0.0,0.0,19,0.00,,---,0.00,VWS V13.01,2013-07-27 19:43:00,
2013-07-27 13:44:00,71.4,30.6,17.73,North,0,0.0,0.0,22,0.00,,---,0.00,VWS V13.01,2013-07-27 19:44:00,
2013-07-27 13:45:00,71.6,27.2,17.73,North,0,0.0,0.0,19,0.00,,---,0.00,VWS V13.01,2013-07-27 19:45:00,
2013-07-27 13:46:00,71.6,29.6,17.73,North,0,0.0,0.0,21,0.00,,---,0.00,VWS V13.01,2013-07-27 19:46:00,
2013-07-27 13:47:00,71.4,30.6,17.73,North,0,0.0,0.0,22,0.00,,---,0.00,VWS V13.01,2013-07-27 19:47:00,
2013-07-27 13:48:00,71.4,30.6,17.73,North,0,0.0,0.0,22,0.00,,---,0.00,VWS V13.01,2013-07-27 19:48:00,
2013-07-27 13:49:00,71.1,30.3,17.73,North,0,0.0,0.0,22,0.00,,---,0.00,VWS V13.01,2013-07-27 19:49:00,
2013-07-27 13:50:00,71.4,30.6,17.73,North,0,0.0,0.0,22,0.00,,---,0.00,VWS V13.01,2013-07-27 19:50:00,
2013-07-27 13:51:00,71.2,30.5,17.73,North,0,0.0,0.0,22,0.00,,---,0.00,VWS V13.01,2013-07-27 19:51:00,
2013-07-27 13:52:00,71.1,30.3,17.73,North,0,0.0,0.0,22,0.00,,---,0.00,VWS V13.01,2013-07-27 19:52:00,
2013-07-27 13:53:00,71.1,30.3,17.73,North,0,0.0,0.0,22,0.00,,---,0.00,VWS V13.01,2013-07-27 19:53:00,
2013-07-27 13:54:00,70.7,30.0,17.73,North,0,0.0,0.0,22,0.00,,---,0.00,VWS V13.01,2013-07-27 19:54:00,
2013-07-27 13:55:00,70.9,30.2,17.73,North,0,0.0,0.0,22,0.00,,---,0.00,VWS V13.01,2013-07-27 19:55:00,
2013-07-27 13:56:00,70.7,30.0,17.73,North,0,0.0,0.0,22,0.00,,---,0.00,VWS V13.01,2013-07-27 19:56:00,
2013-07-27 13:57:00,70.7,30.0,17.73,North,0,0.0,0.0,22,0.00,,---,0.00,VWS V13.01,2013-07-27 19:57:00,
2013-07-27 13:58:00,70.5,29.9,17.73,North,0,0.0,0.0,22,0.00,,---,0.00,VWS V13.01,2013-07-27 19:58:00,
2013-07-27 13:59:00,70.3,29.7,17.73,North,0,0.0,0.0,22,0.00,,---,0.00,VWS V13.01,2013-07-27 19:59:00,
2013-07-27 14:00:00,70.5,29.9,17.73,North,0,0.0,0.0,22,0.00,,---,0.00,VWS V13.01,2013-07-27 20:00:00,
2013-07-27 14:01:00,70.5,29.9,17.73,North,0,0.0,0.0,22,0.00,,---,0.00,VWS V13.01,2013-07-27 20:01:00,
2013-07-27 14:02:00,70.3,29.7,17.73,North,0,0.0,0.0,22,0.00,,---,0.00,VWS V13.01,2013-07-27 20:02:00,
2013-07-27 14:03:00,70.3,29.7,17.73,North,0,0.0,0.0,22,0.00,,---,0.00,VWS V13.01,2013-07-27 20:03:00,
2013-07-27 14:04:00,70.0,29.4,17.73,North,0,0.0,0.0,22,0.00,,---,0.00,VWS V13.01,2013-07-27 20:04:00,
2013-07-27 14:05:00,70.2,29.6,17.73,North,0,0.0,0.0,22,0.00,,---,0.00,VWS V13.01,2013-07-27 20:05:00,
2013-07-27 14:06:00,70.2,29.6,17.73,North,0,0.0,0.0,22,0.00,,---,0.00,VWS V13.01,2013-07-27 20:06:00,
2013-07-27 14:07:00,70.0,29.4,17.73,North,0,0.0,0.0,22,0.00,,---,0.00,VWS V13.01,2013-07-27 20:07:00,
2013-07-27 14:08:00,70.0,29.4,17.73,North,0,0.0,0.0,22,0.00,,---,0.00,VWS V13.01,2013-07-27 20:08:00,
2013-07-27 14:09:00,69.8,29.3,17.73,North,0,0.0,0.0,22,0.00,,---,0.00,VWS V13.01,2013-07-27 20:09:00,
2013-07-27 14:10:00,70.0,29.4,17.73,North,0,0.0,0.0,22,0.00,,---,0.00,VWS V13.01,2013-07-27 20:10:00,
2013-07-27 14:11:00,69.8,29.3,17.73,North,0,0.0,0.0,22,0.00,,---,0.00,VWS V13.01,2013-07-27 20:11:00,
2013-07-27 14:12:00,69.8,29.3,17.73,North,0,0.0,0.0,22,0.00,,---,0.00,VWS V13.01,2013-07-27 20:12:00,
2013-07-27 14:13:00,69.8,29.3,17.73,North,0,0.0,0.0,22,0.00,,---,0.00,VWS V13.01,2013-07-27 20:13:00,
2013-07-27 14:14:00,69.6,29.1,17.73,North,0,0.0,0.0,22,0.00,,---,0.00,VWS V13.01,2013-07-27 20:14:00,
2013-07-27 14:15:00,69.8,29.3,17.73,North,0,0.0,0.0,22,0.00,,---,0.00,VWS V13.01,2013-07-27 20:15:00,
2013-07-27 14:16:00,69.6,29.1,17.73,North,0,0.0,0.0,22,0.00,,---,0.00,VWS V13.01,2013-07-27 20:16:00,
2013-07-27 14:17:00,69.6,29.1,17.73,North,0,0.0,0.0,22,0.00,,---,0.00,VWS V13.01,2013-07-27 20:17:00,
2013-07-27 14:18:00,69.6,29.1,17.73,North,0,0.0,0.0,22,0.00,,---,0.00,VWS V13.01,2013-07-27 20:18:00,
2013-07-27 14:19:00,69.4,29.0,17.73,North,0,0.0,0.0,22,0.00,,---,0.00,VWS V13.01,2013-07-27 20:19:00,
2013-07-27 14:20:00,69.6,29.1,17.73,North,0,0.0,0.0,22,0.00,,---,0.00,VWS V13.01,2013-07-27 20:20:00,
2013-07-27 14:21:00,69.4,29.0,17.73,North,0,0.0,0.0,22,0.00,,---,0.00,VWS V13.01,2013-07-27 20:21:00,
2013-07-27 14:22:00,69.4,29.0,17.73,North,0,0.0,0.0,22,0.00,,---,0.00,VWS V13.01,2013-07-27 20:22:00,
2013-07-27 14:23:00,69.4,29.0,17.73,North,0,0.0,0.0,22,0.00,,---,0.00,VWS V13.01,2013-07-27 20:23:00,
2013-07-27 14:24:00,69.4,29.0,17.73,North,0,0.0,0.0,22,0.00,,---,0.00,VWS V13.01,2013-07-27 20:24:00,
2013-07-27 14:25:00,69.4,29.0,17.73,North,0,0.0,0.0,22,0.00,,---,0.00,VWS V13.01,2013-07-27 20:25:00,
2013-07-27 14:26:00,69.4,29.0,17.73,North,0,0.0,0.0,22,0.00,,---,0.00,VWS V13.01,2013-07-27 20:26:00,
2013-07-27 14:27:00,69.4,29.0,17.73,North,0,0.0,0.0,22,0.00,,---,0.00,VWS V13.01,2013-07-27 20:27:00,
2013-07-27 14:28:00,69.4,29.0,17.73,North,0,0.0,0.0,22,0.00,,---,0.00,VWS V13.01,2013-07-27 20:28:00,
2013-07-27 14:29:00,69.3,28.8,17.73,North,0,0.0,0.0,22,0.00,,---,0.00,VWS V13.01,2013-07-27 20:29:00,
2013-07-27 14:30:00,69.3,28.8,17.73,North,0,0.0,0.0,22,0.00,,---,0.00,VWS V13.01,2013-07-27 20:30:00,
2013-07-27 14:31:00,69.3,28.8,17.73,North,0,0.0,0.0,22,0.00,,---,0.00,VWS V13.01,2013-07-27 20:31:00,
2013-07-27 14:32:00,69.3,28.8,17.73,North,0,0.0,0.0,22,0.00,,---,0.00,VWS V13.01,2013-07-27 20:32:00,
2013-07-27 14:33:00,69.1,28.7,17.73,North,0,0.0,0.0,22,0.00,,---,0.00,VWS V13.01,2013-07-27 20:33:00,
2013-07-27 14:34:00,68.9,28.5,17.73,North,0,0.0,0.0,22,0.00,,---,0.00,VWS V13.01,2013-07-27 20:34:00,
2013-07-27 14:35:00,69.1,28.7,17.73,North,0,0.0,0.0,22,0.00,,---,0.00,VWS V13.01,2013-07-27 20:35:00,
2013-07-27 14:36:00,69.1,28.7,17.73,North,0,0.0,0.0,22,0.00,,---,0.00,VWS V13.01,2013-07-27 20:36:00,
2013-07-27 14:37:00,68.9,28.5,17.73,North,0,0.0,0.0,22,0.00,,---,0.00,VWS V13.01,2013-07-27 20:37:00,
2013-07-27 14:38:00,68.9,28.5,17.73,North,0,0.0,0.0,22,0.00,,---,0.00,VWS V13.01,2013-07-27 20:38:00,
2013-07-27 14:39:00,68.7,28.4,17.73,North,0,0.0,0.0,22,0.00,,---,0.00,VWS V13.01,2013-07-27 20:39:00,
2013-07-27 14:40:00,68.7,28.4,17.73,North,0,0.0,0.0,22,0.00,,---,0.00,VWS V13.01,2013-07-27 20:40:00,
2013-07-27 14:41:00,68.7,28.4,17.73,North,0,0.0,0.0,22,0.00,,---,0.00,VWS V13.01,2013-07-27 20:41:00,
2013-07-27 14:42:00,68.7,28.4,17.73,North,0,0.0,0.0,22,0.00,,---,0.00,VWS V13.01,2013-07-27 20:42:00,
2013-07-27 14:43:00,68.7,28.4,17.73,North,0,0.0,0.0,22,0.00,,---,0.00,VWS V13.01,2013-07-27 20:43:00,
2013-07-27 14:44:00,68.4,28.1,17.73,North,0,0.0,0.0,22,0.00,,---,0.00,VWS V13.01,2013-07-27 20:44:00,
2013-07-27 14:45:00,68.5,28.2,17.73,North,0,0.0,0.0,22,0.00,,---,0.00,VWS V13.01,2013-07-27 20:45:00,
2013-07-27 14:46:00,68.5,28.2,17.73,North,0,0.0,0.0,22,0.00,,---,0.00,VWS V13.01,2013-07-27 20:46:00,
2013-07-27 14:47:00,68.4,28.1,17.73,North,0,0.0,0.0,22,0.00,,---,0.00,VWS V13.01,2013-07-27 20:47:00,
2013-07-27 14:48:00,68.4,29.1,17.73,North,0,0.0,0.0,23,0.00,,---,0.00,VWS V13.01,2013-07-27 20:48:00,
2013-07-27 14:49:00,68.2,29.0,17.73,North,0,0.0,0.0,23,0.00,,---,0.00,VWS V13.01,2013-07-27 20:49:00,
2013-07-27 14:50:00,68.4,29.1,17.73,North,0,0.0,0.0,23,0.00,,---,0.00,VWS V13.01,2013-07-27 20:50:00,
2013-07-27 14:51:00,68.2,29.0,17.73,North,0,0.0,0.0,23,0.00,,---,0.00,VWS V13.01,2013-07-27 20:51:00,
2013-07-27 14:52:00,68.2,29.0,17.73,North,0,0.0,0.0,23,0.00,,---,0.00,VWS V13.01,2013-07-27 20:52:00,
2013-07-27 14:53:00,68.2,29.0,17.73,North,0,0.0,0.0,23,0.00,,---,0.00,VWS V13.01,2013-07-27 20:53:00,
2013-07-27 14:54:00,68.0,28.9,17.73,North,0,0.0,0.0,23,0.00,,---,0.00,VWS V13.01,2013-07-27 20:54:00,
2013-07-27 14:55:00,68.2,29.0,17.73,North,0,0.0,0.0,23,0.00,,---,0.00,VWS V13.01,2013-07-27 20:55:00,
2013-07-27 14:56:00,68.2,29.0,17.73,North,0,0.0,0.0,23,0.00,,---,0.00,VWS V13.01,2013-07-27 20:56:00,
2013-07-27 14:57:00,68.0,28.9,17.73,North,0,0.0,0.0,23,0.00,,---,0.00,VWS V13.01,2013-07-27 20:57:00,
2013-07-27 14:58:00,68.0,28.9,17.73,North,0,0.0,0.0,23,0.00,,---,0.00,VWS V13.01,2013-07-27 20:58:00,
2013-07-27 14:59:00,67.8,28.7,17.73,North,0,0.0,0.0,23,0.00,,---,0.00,VWS V13.01,2013-07-27 20:59:00,
2013-07-27 15:00:00,68.0,28.9,17.73,North,0,0.0,0.0,23,0.00,,---,0.00,VWS V13.01,2013-07-27 21:00:00,
2013-07-27 15:01:00,67.8,28.7,17.73,North,0,0.0,0.0,23,0.00,,---,0.00,VWS V13.01,2013-07-27 21:01:00,
2013-07-27 15:02:00,67.8,28.7,17.73,North,0,0.0,0.0,23,0.00,,---,0.00,VWS V13.01,2013-07-27 21:02:00,
2013-07-27 15:03:00,67.8,28.7,17.73,North,0,0.0,0.0,23,0.00,,---,0.00,VWS V13.01,2013-07-27 21:03:00,
2013-07-27 15:04:00,67.5,29.4,17.73,North,0,0.0,0.0,24,0.00,,---,0.00,VWS V13.01,2013-07-27 21:04:00,
2013-07-27 15:05:00,67.6,29.6,17.73,North,0,0.0,0.0,24,0.00,,---,0.00,VWS V13.01,2013-07-27 21:05:00,
2013-07-27 15:06:00,67.5,29.4,17.73,North,0,0.0,0.0,24,0.00,,---,0.00,VWS V13.01,2013-07-27 21:06:00,
2013-07-27 15:07:00,67.5,29.4,17.73,North,0,0.0,0.0,24,0.00,,---,0.00,VWS V13.01,2013-07-27 21:07:00,
2013-07-27 15:08:00,67.3,29.3,17.73,North,0,0.0,0.0,24,0.00,,---,0.00,VWS V13.01,2013-07-27 21:08:00,
2013-07-27 15:09:00,66.7,28.8,17.73,North,0,0.0,0.0,24,0.00,,---,0.00,VWS V13.01,2013-07-27 21:09:00,
2013-07-27 15:10:00,67.1,29.1,17.73,North,0,0.0,0.0,24,0.00,,---,0.00,VWS V13.01,2013-07-27 21:10:00,
2013-07-27 15:11:00,66.9,29.0,17.73,North,0,0.0,0.0,24,0.00,,---,0.00,VWS V13.01,2013-07-27 21:11:00,
2013-07-27 15:12:00,66.7,28.8,17.73,North,0,0.0,0.0,24,0.00,,---,0.00,VWS V13.01,2013-07-27 21:12:00,
2013-07-27 15:13:00,66.7,29.8,17.73,North,0,0.0,0.0,25,0.00,,---,0.00,VWS V13.01,2013-07-27 21:13:00,
2013-07-27 15:14:00,66.4,29.5,17.73,North,0,0.0,0.0,25,0.00,,---,0.00,VWS V13.01,2013-07-27 21:14:00,
2013-07-27 15:15:00,66.6,29.7,17.73,North,0,0.0,0.0,25,0.00,,---,0.00,VWS V13.01,2013-07-27 21:15:00,
2013-07-27 15:16:00,66.6,29.7,17.73,North,0,0.0,0.0,25,0.00,,---,0.00,VWS V13.01,2013-07-27 21:16:00,
2013-07-27 15:17:00,66.4,29.5,17.73,North,0,0.0,0.0,25,0.00,,---,0.00,VWS V13.01,2013-07-27 21:17:00,
2013-07-27 15:18:00,66.2,30.3,17.73,North,0,0.0,0.0,26,0.00,,---,0.00,VWS V13.01,2013-07-27 21:18:00,
2013-07-27 15:19:00,65.8,31.0,17.73,North,0,0.0,0.0,27,0.00,,---,0.00,VWS V13.01,2013-07-27 21:19:00,
2013-07-27 15:20:00,66.0,31.1,17.73,North,0,0.0,0.0,27,0.00,,---,0.00,VWS V13.01,2013-07-27 21:20:00,
2013-07-27 15:21:00,66.0,31.1,17.73,North,0,0.0,0.0,27,0.00,,---,0.00,VWS V13.01,2013-07-27 21:21:00,
2013-07-27 15:22:00,65.8,31.0,17.73,North,0,0.0,0.0,27,0.00,,---,0.00,VWS V13.01,2013-07-27 21:22:00,
2013-07-27 15:23:00,65.7,30.8,17.73,North,0,0.0,0.0,27,0.00,,---,0.00,VWS V13.01,2013-07-27 21:23:00,
2013-07-27 15:24:00,65.5,31.5,17.73,North,0,0.0,0.0,28,0.00,,---,0.00,VWS V13.01,2013-07-27 21:24:00,
2013-07-27 15:25:00,65.5,30.6,17.73,North,0,0.0,0.0,27,0.00,,---,0.00,VWS V13.01,2013-07-27 21:25:00,
2013-07-27 15:26:00,65.5,30.6,17.73,North,0,0.0,0.0,27,0.00,,---,0.00,VWS V13.01,2013-07-27 21:26:00,
2013-07-27 15:27:00,65.5,31.5,17.73,North,0,0.0,0.0,28,0.00,,---,0.00,VWS V13.01,2013-07-27 21:27:00,
2013-07-27 15:28:00,65.3,31.4,17.73,North,0,0.0,0.0,28,0.00,,---,0.00,VWS V13.01,2013-07-27 21:28:00,
2013-07-27 15:29:00,65.3,32.3,17.73,North,0,0.0,0.0,29,0.00,,---,0.00,VWS V13.01,2013-07-27 21:29:00,
2013-07-27 15:30:00,65.3,32.3,17.73,North,0,0.0,0.0,29,0.00,,---,0.00,VWS V13.01,2013-07-27 21:30:00,
2013-07-27 15:31:00,65.3,32.3,17.73,North,0,0.0,0.0,29,0.00,,---,0.00,VWS V13.01,2013-07-27 21:31:00,
2013-07-27 15:32:00,65.3,32.3,17.73,North,0,0.0,0.0,29,0.00,,---,0.00,VWS V13.01,2013-07-27 21:32:00,